Voltar ao catálogo

SIT-2086

AtivoMilitarSSO
NORAD 61764·PAYLOAD·🇷🇺 Russia

Lançado Nov 4, 2024 de Vostochny Cosmodrome

Loading…

Próximas Passagens (próximas 24 horas)

TLE

AtualizadoSource: Space-Track

Época: Sep 14, 2026, 10:41 UTC

1 61764U 24199AF  26257.44515539  .00039264  00000-0  49349-3 0  9993
2 61764  97.2754 135.5668 0003228 303.1993  56.8954 15.59586597148311

Acompanhe SIT-2086 em tempo real com AllMySat

Download on the App Store